Accueil
METAR-TAF:

METAR-TAF

Aéroports :

Lyndonville, Vermont, États-Unis

latitude: 44-34-09N, longitude: 072-01-05W, altitude: 362 m

Observation

Le bulletin a été fait il y a 6 minutes, à 03:15 UTC
Vent calme
Température 14°C
Humidité 94%
Pression 1016 hPa
Visibilité: 16.1 km
Ciel clair

METAR: KCDA 190315Z AUTO 00000KT 10SM CLR 14/13 A3000 RMK AO2 T01400134

Heure: 23:21 (03:21 UTC)


TAF: absent

Observations et prévisions météorologiques de plus de 4000 aéroports (messages METAR et TAF).

Les stations disponibles sont représentées par des disques jaunes et rouges sur la carte.

Passer la souris dessus pour voir le nom de la station.

Cliquer dessus pour voir les observations et prévisions météorologiques.

Pour changer de carte: cliquez sur les boutons verts avec une croix noire pour zoomer, sur le bouton vert avec un tiret pour effectuer un zoom arrière, ou sur les flèches vertes pour les cartes adjacentes.


METAR-TAF: